User: anonymous   Login
Location: Borgo
(42.3939°N, 9.2791°E)
Time: 00:05:40
(UTC+00:00)
Language:

Cosmos 1812 Rocket - Orbit

View from above orbital plane
View from above orbital plane
View from above satellite
View from above satellite

Ground track
Ground track

The orbit data is extracted from the following two-line orbital elements,

1 17296U 87003B   21103.19315514  .00000082  00000-0  71379-5 0  9991
2 17296  82.5300 159.2024 0017644 300.9245  59.0235 14.83328211850058
Epoch (UTC): 13 April 2021 04:38:08
Eccentricity: 0.0017644
inclination: 82.5300°
perigee height: 606 km
apogee height: 631 km
right ascension of ascending node: 159.2024°
argument of perigee: 300.9245°
revolutions per day: 14.83328211
mean anomaly at epoch: 59.0235°
orbit number at epoch: 85005

The dashed part of the orbit path shows where the satellite is in the earth's shadow,  

DLR